Location: Hamilton
(37.7830°S, 175.2830°E)
Time: 17:09:17
(UTC+13:00)

CZ-2C R/B - Pass Details

Date: 24 January 2019
Orbit: 785 x 870 km, 98.3° (Epoch: 18 October)

Event Time Altitude Azimuth Distance (km) Brightness Sun altitude
Exits shadow 21:49:01 16° 37° (NE) 2,044 4.1 -12.8°
Maximum altitude 21:53:10 51° 108° (ESE) 1,049 3.0 -13.4°
Drops below altitude 10° 21:58:23 10° 182° (S) 2,440 5.7 -14.2°
Sets 22:00:46 0° 186° (S) 3,367 6.6 -14.6°
